Brownsville, TX

12:07 AM CST on December 11, 2017 (GMT -0600)
Brownsville-South Padre I International

Weather History for KBRO - November, 2012

Change the Weather History Date:

Saturday, November 10, 2012

  Actual Average Record
Temperature  
Mean Temperature 78 °F 71 °F  
Max Temperature 87 °F 81 °F 90 °F (1946)
Min Temperature 69 °F 61 °F 40 °F (1955)
Degree Days  
Heating Degree Days 0 1  
Month to date heating degree days 0 10  
Since 1 July heating degree days 2 14  
Cooling Degree Days 13 7  
Month to date cooling degree days 115 78  
Year to date cooling degree days 4548 3843  
Growing Degree Days 28 (Base 50)    
Moisture  
Dew Point 64 °F    
Average Humidity 59    
Maximum Humidity 78    
Minimum Humidity 40    
Precipitation  
Precipitation 0.00 in 0.07 in 0.97 in (1957)
Month to date precipitation 0.01 0.76  
Year to date precipitation 20.93 25.23  
Sea Level Pressure  
Sea Level Pressure 29.96 in    
Wind  
Wind Speed 15 mph (SSE)    
Max Wind Speed 29 mph    
Max Gust Speed 37 mph    
Visibility 10 miles    
Events      
T = Trace of Precipitation, MM = Missing Value Source: NWS Daily Summary

Daily Weather History Graph

Daily Weather History Graph

Search for Another Location

Airport or City:

Trip Planner

Search our weather history database for the weather conditions in past years. The results will help you decide how hot, cold, wet, or windy it might be!

Date:

Astronomy

Nov. 10, 2012 Rise Set
Actual Time 6:44 AM CST 5:42 PM CST
Civil Twilight 6:20 AM CST 6:06 PM CST
Nautical Twilight 5:52 AM CST 6:34 PM CST
Astronomical Twilight 5:25 AM CST 7:01 PM CST
Moon 3:10 AM CST (11/10) 3:14 PM CST (11/10)
Length of Visible Light 11h 46m
Length of Day
10h 57m
Waning Crescent, 14% of the Moon is Illuminated
Nov 10
Waning Crescent
Nov 13
New
Nov 20
First Quarter
Nov 28
Full
Dec 6
Last Quarter

Hourly Weather History & Observations

Time (CST) Temp. Heat Index Dew Point Humidity Pressure Visibility Wind Dir Wind Speed Gust Speed Precip Events Conditions
12:53 AM 72.0 °F - 62.1 °F 71% 30.02 in 10.0 mi SE 8.1 mph - N/A   Clear
1:53 AM 73.0 °F - 64.0 °F 73% 30.01 in 10.0 mi SSE 10.4 mph - N/A   Clear
2:53 AM 71.1 °F - 63.0 °F 75% 29.98 in 10.0 mi SSE 9.2 mph - N/A   Clear
3:53 AM 73.0 °F - 63.0 °F 71% 29.98 in 10.0 mi SSE 11.5 mph - N/A   Clear
4:53 AM 70.0 °F - 62.1 °F 76% 29.97 in 10.0 mi SSE 8.1 mph - N/A   Clear
5:53 AM 70.0 °F - 62.1 °F 76% 29.97 in 10.0 mi SSE 9.2 mph - N/A   Clear
6:53 AM 71.1 °F - 62.1 °F 73% 29.98 in 10.0 mi SE 6.9 mph - N/A   Clear
7:53 AM 75.0 °F - 63.0 °F 66% 30.00 in 10.0 mi SSE 6.9 mph - N/A   Clear
8:53 AM 82.0 °F 83.4 °F 64.0 °F 54% 30.02 in 10.0 mi South 19.6 mph 24.2 mph N/A   Mostly Cloudy
9:53 AM 84.9 °F 84.8 °F 60.1 °F 43% 30.02 in 10.0 mi SSE 20.7 mph 28.8 mph N/A   Clear
10:53 AM 87.1 °F 86.7 °F 60.1 °F 40% 30.01 in 10.0 mi SSE 18.4 mph 26.5 mph N/A   Clear
11:53 AM 86.0 °F 86.3 °F 62.1 °F 44% 29.98 in 10.0 mi SSE 24.2 mph 29.9 mph N/A   Mostly Cloudy
12:53 PM 87.1 °F 87.5 °F 62.1 °F 43% 29.95 in 10.0 mi SSE 21.9 mph 33.4 mph N/A   Mostly Cloudy
1:53 PM 84.0 °F 84.9 °F 63.0 °F 49% 29.92 in 10.0 mi SSE 23.0 mph 29.9 mph N/A   Scattered Clouds
2:53 PM 82.9 °F 84.6 °F 64.9 °F 54% 29.91 in 10.0 mi SE 23.0 mph 31.1 mph N/A   Scattered Clouds
3:53 PM 84.0 °F 86.3 °F 66.0 °F 55% 29.91 in 10.0 mi SSE 20.7 mph 28.8 mph N/A   Mostly Cloudy
4:53 PM 81.0 °F 83.3 °F 66.9 °F 62% 29.91 in 10.0 mi SSE 21.9 mph 31.1 mph N/A   Scattered Clouds
5:53 PM 79.0 °F - 66.0 °F 64% 29.92 in 10.0 mi SSE 13.8 mph 26.5 mph N/A   Partly Cloudy
6:53 PM 78.1 °F - 66.0 °F 66% 29.94 in 10.0 mi SE 13.8 mph - N/A   Clear
7:53 PM 78.1 °F - 64.9 °F 64% 29.95 in 10.0 mi SE 15.0 mph - N/A   Clear
8:53 PM 77.0 °F - 66.0 °F 69% 29.96 in 10.0 mi SE 13.8 mph - N/A   Clear
9:53 PM 77.0 °F - 68.0 °F 74% 29.95 in 10.0 mi SE 18.4 mph 25.3 mph N/A   Clear
10:53 PM 77.0 °F - 68.0 °F 74% 29.94 in 10.0 mi SSE 16.1 mph - N/A   Clear
11:53 PM 75.9 °F - 64.9 °F 69% 29.94 in 10.0 mi SSE 12.7 mph - N/A   Clear